When you browse on this site, cookies collect data to enhance your experience and personalize the content and advertising you see.
Visit our Privacy Policy to learn more. By continuing to use the site, you agree to this use of cookies and data.
  • In Romania
  • List of Countries
  • For 7 days
  • Water Temperature
  • Satellite Maps
  • Weather Map
  • Weather Widgets
  • user-avatar
    Login

    Hourly Weather Rogozinki

    Today, 26 April, Friday

    Time Temperature Precipitation Wind Pressure Humidity
    00:00 +18°C° 0 mm 2 mps 751 mmHg 48%
    01:00 +17°C° 0.1 mm 2 mps 751 mmHg 52%
    02:00 +17°C° 0.1 mm 2 mps 751 mmHg 57%
    03:00 +16°C° 0.1 mm 2 mps 751 mmHg 61%
    04:00 +16°C° 0.2 mm 2 mps 751 mmHg 63%
    05:00 +15°C° 0.2 mm 1 mps 751 mmHg 65%
    06:00 +15°C° 0.2 mm 1 mps 751 mmHg 67%
    07:00 +16°C° 0 mm 1 mps 751 mmHg 61%
    08:00 +18°C° 0 mm 1 mps 751 mmHg 56%
    09:00 +18°C° 0 mm 2 mps 751 mmHg 51%
    10:00 +19°C° 0 mm 2 mps 751 mmHg 46%
    11:00 +20°C° 0 mm 2 mps 751 mmHg 41%
    12:00 +23°C° 0 mm 2 mps 751 mmHg 36%
    13:00 +23°C° 0 mm 2 mps 751 mmHg 35%
    14:00 +23°C° 0 mm 2 mps 750 mmHg 34%
    15:00 +23°C° 0 mm 1 mps 750 mmHg 32%
    16:00 +23°C° 0 mm 1 mps 750 mmHg 35%
    17:00 +22°C° 0 mm 1 mps 750 mmHg 37%
    18:00 +20°C° 0 mm 0 mps 750 mmHg 39%
    19:00 +21°C° 0 mm 1 mps 750 mmHg 41%
    20:00 +20°C° 0 mm 1 mps 750 mmHg 43%
    21:00 +19°C° 0 mm 1 mps 749 mmHg 44%
    22:00 +19°C° 0.1 mm 1 mps 749 mmHg 47%
    23:00 +16°C° 0.1 mm 0 mps 749 mmHg 50%

    Tomorrow, 27 April, Saturday

    Time Temperature Precipitation Wind Pressure Humidity
    00:00 +15°C° 0.1 mm 0 mps 749 mmHg 53%
    01:00 +16°C° 0 mm 1 mps 749 mmHg 55%
    02:00 +15°C° 0 mm 1 mps 749 mmHg 56%
    03:00 +15°C° 0 mm 1 mps 749 mmHg 58%
    04:00 +15°C° 0 mm 1 mps 748 mmHg 61%
    05:00 +14°C° 0 mm 1 mps 748 mmHg 63%
    06:00 +14°C° 0 mm 2 mps 748 mmHg 66%
    07:00 +15°C° 0 mm 2 mps 748 mmHg 62%
    08:00 +17°C° 0 mm 2 mps 747 mmHg 58%
    09:00 +18°C° 0 mm 2 mps 747 mmHg 54%
    10:00 +20°C° 0 mm 2 mps 747 mmHg 47%
    11:00 +21°C° 0 mm 3 mps 747 mmHg 40%
    12:00 +22°C° 0 mm 3 mps 746 mmHg 33%
    13:00 +22°C° 0 mm 3 mps 746 mmHg 34%
    14:00 +22°C° 0 mm 3 mps 745 mmHg 35%
    15:00 +22°C° 0 mm 4 mps 745 mmHg 36%
    16:00 +21°C° 0 mm 3 mps 745 mmHg 39%
    17:00 +21°C° 0 mm 3 mps 744 mmHg 42%
    18:00 +21°C° 0 mm 2 mps 744 mmHg 45%
    19:00 +19°C° 0 mm 3 mps 743 mmHg 49%
    20:00 +18°C° 0 mm 3 mps 743 mmHg 54%
    21:00 +17°C° 0 mm 3 mps 743 mmHg 58%
    22:00 +16°C° 0 mm 3 mps 743 mmHg 60%
    23:00 +14°C° 0 mm 3 mps 742 mmHg 62%

    Day after tomorrow, 28 April, Sunday

    Time Temperature Precipitation Wind Pressure Humidity
    00:00 +14°C° 0 mm 3 mps 742 mmHg 64%
    01:00 +13°C° 0 mm 3 mps 742 mmHg 66%
    02:00 +13°C° 0 mm 3 mps 741 mmHg 67%
    03:00 +13°C° 0 mm 3 mps 741 mmHg 69%
    04:00 +12°C° 1 mm 3 mps 741 mmHg 74%
    05:00 +13°C° 1 mm 2 mps 741 mmHg 79%
    06:00 +13°C° 1 mm 2 mps 741 mmHg 85%
    07:00 +12°C° 0.4 mm 3 mps 741 mmHg 85%
    08:00 +12°C° 0.4 mm 3 mps 741 mmHg 85%
    09:00 +13°C° 0.4 mm 4 mps 742 mmHg 85%
    10:00 +12°C° 0.1 mm 5 mps 742 mmHg 84%
    11:00 +9°C° 0.1 mm 6 mps 743 mmHg 83%
    12:00 +8°C° 0.1 mm 7 mps 743 mmHg 82%
    13:00 +9°C° 0 mm 7 mps 743 mmHg 76%
    14:00 +9°C° 0 mm 6 mps 744 mmHg 71%
    15:00 +10°C° 0 mm 6 mps 744 mmHg 66%
    16:00 +10°C° 0 mm 6 mps 745 mmHg 63%
    17:00 +10°C° 0 mm 6 mps 745 mmHg 59%
    18:00 +9°C° 0 mm 6 mps 745 mmHg 56%
    19:00 +8°C° 0 mm 6 mps 746 mmHg 58%
    20:00 +7°C° 0 mm 5 mps 747 mmHg 61%
    21:00 +6°C° 0 mm 5 mps 748 mmHg 63%
    22:00 +5°C° 0 mm 5 mps 748 mmHg 63%
    23:00 +3°C° 0 mm 5 mps 749 mmHg 64%

    29 April, Monday

    Time Temperature Precipitation Wind Pressure Humidity
    00:00 +2°C° 0 mm 5 mps 749 mmHg 64%
    01:00 +3°C° 0 mm 4 mps 749 mmHg 65%
    02:00 +1°C° 0 mm 4 mps 750 mmHg 66%
    03:00 +1°C° 0 mm 4 mps 750 mmHg 67%
    04:00 +1°C° 0 mm 4 mps 750 mmHg 69%
    05:00 0°C° 0 mm 4 mps 750 mmHg 71%
    06:00 0°C° 0 mm 5 mps 751 mmHg 72%
    07:00 +1°C° 0 mm 5 mps 751 mmHg 69%
    08:00 +2°C° 0 mm 5 mps 751 mmHg 65%
    09:00 +5°C° 0 mm 5 mps 751 mmHg 62%
    10:00 +6°C° 0 mm 5 mps 751 mmHg 58%
    11:00 +7°C° 0 mm 5 mps 751 mmHg 54%
    12:00 +8°C° 0 mm 5 mps 751 mmHg 49%
    13:00 +8°C° 0 mm 4 mps 751 mmHg 46%
    14:00 +8°C° 0 mm 4 mps 751 mmHg 43%
    15:00 +10°C° 0 mm 4 mps 751 mmHg 40%
    16:00 +8°C° 0 mm 4 mps 751 mmHg 40%
    17:00 +8°C° 0 mm 4 mps 751 mmHg 40%
    18:00 +8°C° 0 mm 4 mps 750 mmHg 40%
    19:00 +8°C° 0 mm 3 mps 751 mmHg 44%
    20:00 +7°C° 0 mm 3 mps 751 mmHg 48%
    21:00 +5°C° 0 mm 2 mps 751 mmHg 52%
    22:00 +5°C° 0 mm 2 mps 751 mmHg 54%
    23:00 +4°C° 0 mm 2 mps 751 mmHg 55%

    30 April, Tuesday

    Time Temperature Precipitation Wind Pressure Humidity
    00:00 +3°C° 0 mm 2 mps 751 mmHg 57%
    01:00 +3°C° 0 mm 2 mps 751 mmHg 59%
    02:00 +3°C° 0 mm 2 mps 751 mmHg 61%
    03:00 +2°C° 0 mm 2 mps 751 mmHg 63%
    04:00 +2°C° 0 mm 2 mps 751 mmHg 66%
    05:00 +2°C° 0 mm 2 mps 751 mmHg 68%
    06:00 +2°C° 0 mm 2 mps 751 mmHg 70%
    07:00 +4°C° 0 mm 2 mps 751 mmHg 64%
    08:00 +5°C° 0 mm 2 mps 751 mmHg 58%
    09:00 +7°C° 0 mm 2 mps 750 mmHg 52%
    10:00 +8°C° 0 mm 3 mps 750 mmHg 47%
    11:00 +9°C° 0 mm 3 mps 750 mmHg 43%
    12:00 +9°C° 0 mm 3 mps 749 mmHg 39%
    13:00 +10°C° 0 mm 3 mps 749 mmHg 38%
    14:00 +10°C° 0 mm 2 mps 749 mmHg 38%
    15:00 +10°C° 0 mm 2 mps 748 mmHg 37%
    16:00 +10°C° 0 mm 2 mps 748 mmHg 38%
    17:00 +10°C° 0 mm 2 mps 748 mmHg 39%
    18:00 +10°C° 0 mm 2 mps 747 mmHg 40%
    19:00 +9°C° 0 mm 2 mps 747 mmHg 43%
    20:00 +9°C° 0 mm 2 mps 747 mmHg 46%
    21:00 +8°C° 0 mm 3 mps 747 mmHg 49%
    22:00 +7°C° 0 mm 3 mps 747 mmHg 50%
    23:00 +7°C° 0 mm 3 mps 747 mmHg 51%

    1 May, Wednesday

    Time Temperature Precipitation Wind Pressure Humidity
    00:00 +5°C° 0 mm 3 mps 747 mmHg 52%
    01:00 +5°C° 0 mm 3 mps 747 mmHg 52%
    02:00 +5°C° 0 mm 3 mps 747 mmHg 53%
    03:00 +5°C° 0 mm 2 mps 747 mmHg 54%
    04:00 +5°C° 0 mm 2 mps 747 mmHg 56%
    05:00 +5°C° 0 mm 2 mps 746 mmHg 59%
    06:00 +4°C° 0 mm 2 mps 746 mmHg 61%
    07:00 +6°C° 0 mm 2 mps 746 mmHg 57%
    08:00 +7°C° 0 mm 3 mps 746 mmHg 53%
    09:00 +9°C° 0 mm 3 mps 746 mmHg 49%
    10:00 +10°C° 0 mm 3 mps 746 mmHg 48%
    11:00 +10°C° 0 mm 3 mps 745 mmHg 46%
    12:00 +11°C° 0 mm 4 mps 745 mmHg 45%
    13:00 +11°C° 0 mm 4 mps 745 mmHg 44%
    14:00 +11°C° 0 mm 4 mps 744 mmHg 44%
    15:00 +12°C° 0 mm 4 mps 744 mmHg 44%
    16:00 +12°C° 0 mm 3 mps 744 mmHg 46%
    17:00 +11°C° 0 mm 3 mps 743 mmHg 47%
    18:00 +11°C° 0 mm 3 mps 743 mmHg 49%
    19:00 +10°C° 0 mm 3 mps 743 mmHg 54%
    20:00 +10°C° 0 mm 3 mps 742 mmHg 58%
    21:00 +9°C° 0 mm 2 mps 742 mmHg 62%
    22:00 +8°C° 0.1 mm 3 mps 741 mmHg 68%
    23:00 +8°C° 0.1 mm 3 mps 741 mmHg 74%
    Show more